Wetbulb
55.23 54.99 54.40 53.61 53.48 53.33 53.02 53.05 52.60 52.62 52.51 52.13 52.03 51.85 51.61 51.37 51.38 50.92 50.60 50.57 50.40 50.08 49.79 49.07 48.27 48.09 47.71 47.61 47.83 47.83 47.77 48.15 46.75 41.10 41.25 41.54 42.30 42.45 44.56 44.59 45.25 42.52 44.75
54.27 53.62 53.16 53.28 53.46 52.62 51.97 52.07 52.44 51.93 52.24 51.94 51.84 51.55 51.37 51.33 51.33 50.90 50.44 50.27 49.93 49.53 49.26 48.39 47.34 48.25 46.25 46.34 46.20 44.71 44.66 43.27 43.06 38.99 39.53 40.39 41.73 42.85 42.66 42.05 42.97 44.27 40.83
52.87 52.90 52.66 52.69 52.73 52.43 52.30 52.61 52.46 51.83 51.74 51.79 51.65 51.25 51.35 51.49 51.47 51.56 51.25 50.72 50.04 49.38 48.70 47.27 46.22 46.19 43.91 42.80 42.10 41.04 41.15 42.78 41.89 40.11 39.43 41.49 42.20 42.45 41.13 40.49 39.66 38.80 42.10
52.16 50.49 50.11 51.22 51.43 51.81 51.97 51.88 51.33 51.07 49.84 48.49 48.00 47.13 47.69 48.99 49.49 50.29 49.93 49.02 47.09 46.47 46.69 45.87 44.59 43.40 41.81 41.40 41.31 41.37 42.15 41.57 41.40 40.76 40.04 40.38 40.82 40.99 39.10 37.01 36.88 38.83 39.35
50.42 49.87 48.73 49.69 48.80 48.80 47.89 47.98 48.45 46.80 46.39 45.99 45.05 44.45 43.81 43.69 43.87 42.50 42.67 42.35 41.73 41.88 42.44 42.76 43.04 44.54 46.51 44.36 42.53 42.14 41.67 40.90 40.76 40.00 38.52 37.07 36.71 36.29 35.05 36.81 36.32 36.74 37.67
49.16 48.45 48.47 47.78 47.19 45.95 45.79 45.41 45.48 45.55 45.70 45.68 45.25 45.19 44.68 46.05 48.29 47.41 44.31 42.24 41.51 41.30 41.65 42.48 44.59 47.19 46.78 47.88 47.61 47.18 44.09 39.29 37.75 36.81 35.94 34.72 34.66 34.94 35.09 34.49 34.15 33.69 32.85
48.77 48.96 48.74 48.86 47.81 46.91 46.66 46.41 46.01 44.81 43.58 42.65 42.30 42.40 42.29 43.63 48.76 48.32 47.43 42.86 42.83 43.51 43.03 43.01 44.12 46.05 45.21 43.58 46.39 46.02 44.47 44.09 42.11 35.96 34.68 34.31 33.56 34.30 34.28 34.08 33.45 33.13 33.18
49.14 49.63 50.14 48.57 46.63 46.27 45.21 43.65 42.39 41.72 41.05 40.81 41.06 40.73 40.95 44.02 47.90 48.04 47.26 40.96 40.38 40.76 41.17 40.83 40.56 40.12 41.44 42.50 41.32 39.45 38.20 38.87 39.76 40.16 36.12 35.39 35.75 36.69 37.57 38.27 35.43 34.22 35.45
48.51 47.37 47.02 46.41 45.36 44.92 43.55 42.24 41.83 40.80 39.87 39.38 39.97 38.77 37.79 38.34 45.32 45.57 41.85 37.95 37.73 37.37 38.37 39.11 38.72 36.91 42.92 43.12 38.58 36.98 36.28 38.73 43.86 43.72 41.94 41.12 40.60 40.29 38.81 34.87 32.72 34.38 31.87
46.79 46.55 46.24 45.81 44.60 43.00 41.55 40.67 40.23 39.27 38.88 39.79 38.75 37.72 41.51 36.01 43.22 43.56 40.47 37.41 34.83 35.78 36.30 36.90 43.51 40.48 42.64 42.53 38.24 36.95 35.17 38.12 38.97 38.45 38.30 38.96 39.41 37.58 39.37 34.53 33.38 31.63 33.69
46.97 45.70 44.41 43.48 42.50 41.70 40.37 39.45 38.40 38.49 38.20 37.36 37.31 36.66 36.12 36.91 38.00 43.33 44.22 37.65 36.83 36.36 36.45 36.43 38.25 41.80 43.23 42.60 42.48 39.70 40.01 39.43 39.46 37.07 36.36 36.52 37.10 37.67 37.55 37.92 37.66 36.06 33.94
44.54 43.21 41.96 41.43 43.61 42.17 38.88 37.97 38.08 37.50 36.17 36.08 35.75 35.78 36.85 37.23 41.99 42.89 44.16 43.17 42.57 37.47 36.58 37.14 38.47 42.20 41.73 41.06 40.99 42.18 41.46 39.99 37.13 35.44 34.87 34.48 34.77 35.39 36.03 36.66 37.15 37.24 37.23
42.37 40.59 40.39 40.41 40.16 39.68 38.17 37.05 36.83 36.68 35.88 35.61 35.68 34.56 35.23 38.33 38.57 43.12 42.72 42.39 42.22 38.09 37.83 40.01 40.69 39.96 39.09 38.58 39.08 39.28 40.05 36.56 35.43 33.60 33.20 33.80 34.84 35.91 36.44 36.47 37.22 37.43 36.88
41.27 39.54 39.34 38.73 38.12 38.27 39.17 38.34 37.15 36.11 35.36 35.75 35.18 33.95 33.93 34.63 36.54 37.73 38.41 37.29 41.04 39.12 39.92 36.93 37.70 37.39 37.75 37.08 36.99 38.39 37.17 35.84 35.14 34.51 34.94 35.13 36.12 36.08 35.14 35.54 35.07 35.72 34.82
41.70 40.72 39.63 39.33 37.82 36.92 37.76 37.39 37.94 37.00 37.57 34.84 34.74 34.85 33.55 32.82 36.11 40.00 39.35 37.37 36.70 38.89 36.97 34.93 33.92 34.73 34.15 34.41 35.12 35.72 36.03 35.96 35.04 35.74 35.04 34.56 35.26 35.71 35.73 35.46 34.82 34.06 33.09
41.82 40.94 40.08 39.14 37.18 37.25 36.86 35.46 44.31 43.87 45.12 44.28 43.92 38.62 37.91 41.03 43.69 43.81 42.04 41.75 41.90 40.72 35.08 32.66 31.78 33.89 33.16 32.86 32.94 33.51 34.75 35.07 35.08 35.47 35.33 35.40 35.06 34.63 34.41 34.86 34.52 33.25 32.28
42.38 41.61 41.09 40.47 38.40 36.88 36.88 35.34 32.37 36.95 42.19 43.58 43.38 43.77 41.84 42.31 43.34 42.55 41.19 40.93 40.70 38.55 31.96 31.58 31.94 32.96 33.09 33.36 33.57 34.07 33.69 34.68 35.04 34.73 34.74 34.17 34.72 34.69 34.77 33.71 33.68 33.79 32.72
43.10 45.33 41.18 39.67 39.26 37.99 37.39 36.15 35.22 33.30 32.16 33.05 40.39 39.75 41.74 41.78 41.61 41.00 40.73 40.56 37.07 37.17 33.42 31.45 31.34 32.90 32.35 33.69 34.32 34.64 34.93 35.29 34.93 35.05 34.97 35.05 34.78 34.13 32.29 32.74 33.15 32.30 32.12
43.99 43.11 41.43 39.98 39.79 39.55 37.69 36.60 36.49 34.73 33.74 33.43 34.66 38.67 39.92 41.36 40.97 41.00 41.17 36.13 34.84 34.09 33.83 33.42 33.37 33.28 33.17 33.19 34.11 33.63 33.77 33.27 33.56 33.56 34.25 33.95 33.12 33.58 32.94 32.62 32.67 33.60 33.91
44.62 45.07 43.46 41.15 40.74 39.11 37.52 37.02 36.21 35.52 34.68 34.48 34.74 34.19 36.36 37.91 36.58 36.54 36.82 36.38 34.67 34.74 34.81 33.49 33.78 33.31 33.10 33.09 34.32 34.02 33.91 33.94 33.72 33.40 33.37 33.19 33.38 33.38 32.66 32.84 33.22 32.80 31.18
44.23 43.44 44.60 41.34 40.53 39.55 38.67 37.80 36.83 35.37 34.67 34.97 35.21 37.02 38.74 36.11 35.70 35.16 35.41 35.10 34.37 34.41 33.56 33.88 32.28 31.89 32.31 33.12 32.59 32.64 33.64 33.31 33.11 32.99 33.18 33.30 33.67 33.04 33.64 33.57 32.86 32.20 32.41
44.24 42.83 42.59 41.42 40.92 39.94 38.78 38.41 36.82 36.02 35.83 35.86 36.08 37.67 39.94 36.39 35.41 35.39 35.41 35.47 34.99 35.88 34.96 32.37 31.64 32.32 31.15 31.35 32.39 32.41 33.21 32.40 32.77 33.07 33.29 33.45 33.40 33.22 33.01 32.45 32.82 32.86 32.55
44.67 43.08 41.76 40.99 41.23 41.75 39.70 37.49 36.71 36.73 36.31 36.46 36.22 36.96 37.56 35.81 35.89 35.49 35.87 34.76 34.88 33.67 33.58 33.22 31.14 32.54 33.58 32.94 33.87 33.67 32.43 31.98 33.30 34.56 32.83 31.93 31.07 30.61 31.86 32.48 32.11 30.93 30.77
44.36 42.92 41.43 40.37 40.59 39.57 38.00 37.06 36.95 37.71 36.04 35.46 35.54 36.18 36.65 35.80 35.35 35.95 34.31 33.98 32.77 32.45 31.66 30.34 29.94 32.93 32.69 33.08 33.66 34.20 34.35 34.70 34.16 32.71 32.25 31.34 30.74 30.83 31.29 31.47 31.19 31.24 30.70
43.07 42.02 41.04 40.09 40.44 38.40 37.81 36.75 36.28 35.38 34.30 34.10 35.04 35.78 35.95 35.16 36.27 34.69 33.17 32.17 31.11 30.16 29.59 28.10 29.60 33.05 32.78 32.69 33.50 33.72 34.00 33.18 32.72 32.74 32.53 32.04 31.88 32.20 32.12 32.24 31.93 30.82 30.32
42.39 41.98 40.53 39.14 38.54 37.95 37.33 35.88 34.32 33.37 32.96 33.08 33.63 34.95 35.23 36.08 35.56 32.73 31.57 31.46 29.57 28.98 29.46 28.23 31.17 32.63 32.55 32.52 32.64 32.80 32.42 32.43 32.07 32.89 33.02 32.28 31.46 31.73 32.08 31.69 31.49 31.07 30.31
MSLP
1013.98 1014.16 1014.35 1014.65 1014.84 1015.08 1015.50 1015.79 1016.22 1016.65 1016.84 1017.38 1018.09 1018.62 1019.27 1019.71 1019.94 1020.15 1020.34 1020.62 1021.09 1021.45 1021.84 1022.46 1023.32 1023.55 1024.05 1024.47 1024.81 1025.14 1025.55 1026.16 1026.65 1026.99 1027.20 1027.25 1027.25 1027.27 1027.22 1027.22 1027.31 1027.35 1027.24
1014.59 1014.81 1015.03 1015.15 1015.45 1015.78 1016.19 1016.55 1016.80 1017.19 1017.77 1018.15 1018.63 1019.15 1019.56 1019.94 1020.36 1020.70 1021.09 1021.40 1021.86 1022.34 1022.74 1023.15 1023.78 1024.05 1024.39 1024.54 1024.75 1025.35 1025.77 1026.17 1026.62 1026.99 1027.25 1027.31 1027.14 1027.09 1027.25 1027.49 1027.66 1027.44 1027.45
1015.00 1015.26 1015.60 1015.82 1016.08 1016.28 1016.58 1016.91 1017.23 1017.62 1018.01 1018.45 1019.05 1019.55 1019.93 1020.31 1020.67 1021.11 1021.52 1021.86 1022.31 1022.58 1022.93 1023.32 1023.83 1024.00 1024.42 1024.79 1025.08 1025.39 1025.90 1026.11 1026.43 1026.80 1027.22 1027.30 1027.39 1027.27 1027.55 1027.71 1027.72 1027.69 1027.28
1015.57 1015.97 1016.22 1016.44 1016.74 1017.01 1017.23 1017.53 1017.92 1018.19 1018.63 1019.30 1019.74 1020.11 1020.34 1020.63 1020.92 1021.44 1021.93 1022.26 1022.47 1022.71 1023.05 1023.35 1023.73 1024.13 1024.42 1024.76 1025.14 1025.51 1025.94 1026.23 1026.48 1026.89 1027.25 1027.38 1027.41 1027.57 1027.81 1027.91 1028.00 1027.77 1027.51
1015.97 1016.46 1016.84 1017.06 1017.41 1017.63 1017.91 1018.13 1018.51 1019.02 1019.47 1019.78 1020.35 1020.67 1020.85 1021.00 1021.33 1021.73 1022.07 1022.43 1022.93 1023.28 1023.47 1023.88 1024.17 1024.18 1024.38 1024.85 1025.20 1025.51 1025.96 1026.45 1026.70 1026.92 1027.29 1027.59 1027.75 1027.91 1028.12 1028.13 1028.37 1028.08 1027.66
1016.25 1016.77 1017.26 1017.65 1017.97 1018.29 1018.49 1018.76 1019.17 1019.59 1019.90 1020.15 1020.84 1021.32 1021.54 1021.59 1021.76 1021.97 1022.27 1022.76 1023.31 1023.61 1024.04 1024.47 1024.46 1024.38 1024.44 1024.77 1025.21 1025.63 1025.86 1026.45 1026.84 1027.14 1027.39 1027.77 1027.81 1028.12 1028.34 1028.72 1028.94 1028.58 1028.11
1016.39 1016.84 1017.27 1017.71 1018.22 1018.61 1018.90 1019.26 1019.67 1020.00 1020.43 1020.76 1021.29 1021.93 1022.22 1022.33 1022.30 1022.25 1022.54 1023.26 1023.64 1024.19 1024.63 1024.92 1025.14 1025.22 1025.44 1025.56 1025.68 1025.84 1026.23 1026.45 1026.71 1027.20 1027.92 1028.21 1028.41 1028.32 1028.50 1028.65 1028.95 1028.59 1028.34
1016.45 1016.82 1017.10 1017.57 1018.13 1018.61 1019.15 1019.75 1020.21 1020.53 1021.05 1021.62 1021.97 1022.56 1022.78 1022.91 1022.78 1022.68 1022.87 1023.93 1024.17 1024.47 1025.05 1025.40 1025.58 1025.96 1026.09 1026.07 1026.24 1026.44 1026.83 1027.26 1027.35 1027.37 1028.18 1028.43 1028.27 1028.38 1028.36 1028.68 1028.70 1028.55 1028.17
1016.04 1016.55 1017.05 1017.47 1018.16 1018.77 1019.41 1019.92 1020.27 1020.82 1021.45 1021.89 1022.36 1022.91 1023.27 1023.42 1023.15 1023.00 1023.59 1024.24 1024.58 1025.00 1025.43 1026.05 1026.16 1026.19 1026.01 1026.09 1026.43 1026.59 1026.98 1027.24 1027.18 1027.47 1027.84 1028.02 1028.06 1028.23 1028.56 1029.04 1028.94 1028.50 1028.35
1015.54 1016.31 1016.86 1017.42 1018.08 1018.98 1019.59 1020.12 1020.51 1020.99 1021.47 1021.91 1022.59 1023.19 1023.79 1023.98 1023.75 1023.65 1024.03 1024.37 1024.99 1025.36 1025.82 1026.26 1026.20 1026.59 1026.40 1026.50 1026.65 1026.72 1026.94 1027.34 1027.27 1027.64 1027.99 1027.99 1028.11 1028.53 1028.52 1028.89 1028.82 1028.63 1028.50
1015.24 1016.11 1016.94 1017.71 1018.39 1018.90 1019.53 1020.06 1020.70 1021.35 1021.92 1022.53 1023.06 1023.53 1024.00 1024.31 1024.29 1024.12 1024.10 1024.40 1024.90 1025.45 1025.93 1026.51 1026.77 1026.66 1026.68 1026.72 1026.60 1026.69 1026.84 1027.24 1027.43 1027.63 1027.85 1028.14 1028.14 1028.13 1028.47 1028.32 1028.27 1028.41 1028.48
1015.37 1016.29 1017.16 1017.79 1018.32 1019.00 1019.70 1020.36 1020.99 1021.69 1022.51 1023.14 1023.69 1024.22 1024.38 1024.74 1024.60 1024.53 1024.42 1024.62 1024.94 1025.40 1026.11 1026.68 1026.83 1026.77 1026.81 1026.87 1026.88 1026.94 1027.06 1027.34 1027.65 1027.82 1028.10 1028.23 1028.33 1028.33 1028.42 1028.37 1028.37 1028.35 1028.31
1015.57 1016.41 1017.25 1017.83 1018.52 1019.23 1020.08 1020.90 1021.51 1022.05 1022.64 1023.11 1023.59 1024.11 1024.49 1024.60 1024.75 1024.70 1024.93 1025.16 1025.43 1025.82 1026.46 1026.64 1026.79 1026.94 1027.05 1027.18 1027.07 1027.13 1027.44 1027.63 1027.82 1028.13 1028.24 1028.36 1028.44 1028.41 1028.31 1028.35 1028.20 1028.08 1027.94
1015.48 1016.34 1017.14 1017.88 1018.70 1019.21 1019.87 1020.50 1021.28 1021.75 1022.22 1022.80 1023.34 1023.84 1024.23 1024.60 1024.82 1025.29 1025.68 1025.98 1025.91 1026.24 1026.42 1026.99 1027.01 1027.24 1027.07 1027.29 1027.52 1027.42 1027.68 1027.84 1027.95 1028.19 1028.34 1028.35 1028.29 1028.30 1028.20 1028.13 1028.09 1028.00 1027.87
1015.25 1016.18 1017.06 1017.92 1018.77 1019.47 1019.88 1020.35 1020.82 1021.14 1021.59 1022.12 1022.60 1023.00 1023.58 1024.15 1024.48 1024.86 1025.41 1025.84 1026.08 1026.24 1026.75 1027.24 1027.27 1027.34 1027.45 1027.43 1027.62 1027.84 1027.87 1027.90 1028.02 1028.15 1028.24 1028.29 1028.28 1028.21 1028.04 1027.89 1027.91 1027.83 1027.75
1014.91 1015.96 1016.81 1017.62 1018.46 1019.23 1019.89 1020.78 1020.93 1021.13 1021.31 1021.60 1021.84 1022.30 1022.87 1023.13 1023.44 1024.10 1024.96 1025.48 1025.77 1026.19 1026.66 1027.15 1027.30 1027.33 1027.45 1027.55 1027.72 1027.85 1027.94 1027.87 1028.02 1028.12 1028.17 1028.20 1028.17 1028.06 1027.89 1027.78 1027.70 1027.68 1027.64
1014.29 1015.35 1016.37 1017.27 1018.15 1018.82 1019.44 1020.18 1021.12 1021.64 1021.55 1021.57 1021.84 1022.23 1022.88 1023.24 1023.60 1024.13 1024.78 1025.35 1025.75 1026.24 1026.74 1027.03 1027.19 1027.33 1027.44 1027.58 1027.71 1027.79 1027.90 1027.88 1027.87 1028.01 1028.03 1028.01 1027.96 1027.87 1027.83 1027.86 1027.73 1027.57 1027.51
1013.66 1014.54 1015.52 1016.46 1017.36 1018.15 1018.94 1019.72 1020.52 1021.17 1021.86 1022.34 1022.53 1022.83 1023.18 1023.76 1024.23 1024.63 1024.93 1025.24 1025.80 1026.13 1026.65 1027.01 1027.13 1027.21 1027.42 1027.56 1027.66 1027.76 1027.83 1027.88 1027.91 1027.91 1027.84 1027.79 1027.87 1027.90 1027.86 1027.79 1027.68 1027.49 1027.33
1013.10 1014.06 1015.01 1015.99 1016.84 1017.67 1018.52 1019.38 1020.24 1021.15 1021.68 1022.15 1022.58 1022.75 1022.98 1023.39 1023.90 1024.48 1024.95 1025.47 1025.94 1026.35 1026.54 1026.73 1026.87 1027.09 1027.24 1027.43 1027.63 1027.83 1027.92 1027.92 1027.91 1027.94 1027.90 1027.84 1027.80 1027.77 1027.75 1027.66 1027.51 1027.24 1027.10
1012.74 1013.31 1014.23 1015.39 1016.26 1017.13 1018.09 1018.92 1019.66 1020.51 1021.25 1021.87 1022.39 1022.76 1023.14 1023.75 1024.12 1024.59 1025.02 1025.44 1025.82 1026.01 1026.27 1026.48 1026.78 1026.98 1027.19 1027.41 1027.58 1027.72 1027.82 1027.85 1027.87 1027.89 1027.84 1027.75 1027.67 1027.60 1027.59 1027.54 1027.44 1027.32 1027.16
1012.57 1013.29 1013.98 1014.95 1015.72 1016.40 1017.24 1018.19 1019.08 1019.90 1020.66 1021.36 1021.94 1022.33 1022.69 1023.23 1023.91 1024.63 1024.97 1025.29 1025.54 1025.75 1026.03 1026.37 1026.70 1027.01 1027.21 1027.35 1027.52 1027.68 1027.73 1027.78 1027.85 1027.88 1027.79 1027.72 1027.63 1027.60 1027.54 1027.46 1027.34 1027.19 1026.99
1012.08 1012.95 1013.88 1014.65 1015.44 1016.31 1017.03 1017.82 1018.61 1019.44 1020.15 1020.81 1021.34 1021.88 1022.52 1023.24 1023.76 1024.34 1024.65 1024.91 1025.18 1025.40 1025.76 1026.29 1026.73 1026.95 1027.27 1027.43 1027.50 1027.67 1027.72 1027.77 1027.79 1027.79 1027.78 1027.73 1027.68 1027.59 1027.50 1027.39 1027.21 1027.01 1026.78
1011.60 1012.42 1013.47 1014.35 1015.16 1016.03 1016.83 1017.50 1018.22 1018.79 1019.38 1020.02 1020.62 1021.35 1022.13 1023.09 1023.57 1023.98 1024.25 1024.57 1024.92 1025.43 1025.81 1026.26 1026.76 1026.96 1027.15 1027.32 1027.42 1027.55 1027.71 1027.74 1027.77 1027.78 1027.81 1027.79 1027.66 1027.62 1027.51 1027.28 1027.07 1026.84 1026.58
1011.34 1012.14 1013.03 1013.99 1014.89 1015.76 1016.54 1017.18 1017.78 1018.41 1019.10 1019.93 1020.64 1021.28 1021.81 1022.49 1023.16 1023.69 1024.02 1024.39 1024.92 1025.40 1025.92 1026.41 1026.77 1026.91 1027.15 1027.23 1027.33 1027.41 1027.49 1027.57 1027.71 1027.71 1027.66 1027.68 1027.59 1027.42 1027.18 1026.95 1026.75 1026.58 1026.42
1011.09 1011.95 1012.79 1013.70 1014.66 1015.53 1016.24 1016.93 1017.61 1018.23 1018.96 1019.73 1020.49 1021.17 1021.84 1022.43 1022.91 1023.35 1023.79 1024.25 1024.84 1025.47 1025.97 1026.37 1026.54 1026.66 1026.81 1026.99 1027.19 1027.28 1027.40 1027.59 1027.63 1027.69 1027.67 1027.59 1027.46 1027.28 1027.02 1026.72 1026.49 1026.34 1026.15
1010.91 1011.81 1012.68 1013.48 1014.41 1015.20 1015.97 1016.73 1017.46 1018.16 1018.92 1019.64 1020.30 1020.89 1021.52 1022.13 1022.56 1023.07 1023.77 1024.38 1025.01 1025.44 1025.74 1026.14 1026.29 1026.49 1026.67 1026.82 1027.02 1027.26 1027.48 1027.53 1027.54 1027.50 1027.36 1027.28 1027.16 1026.91 1026.65 1026.46 1026.25 1026.02 1025.82
Wind_Speed
8 8 9 9 10 10 9 9 9 9 9 9 8 9 8 7 6 6 7 7 9 9 9 9 7 5 5 4 4 3 3 2 3 0 1 2 2 3 2 2 2 1 1
8 9 9 10 10 10 10 10 10 10 10 10 9 9 8 8 7 7 6 6 9 8 7 7 6 4 4 4 4 4 2 2 2 2 1 2 2 1 1 1 2 3 2
8 9 8 8 9 9 9 9 10 10 10 9 8 9 9 8 8 8 7 7 6 7 6 6 5 5 4 3 4 4 3 2 2 3 2 1 1 1 2 2 2 3 3
9 8 8 8 9 9 10 11 10 10 11 9 8 7 7 7 6 7 6 6 5 5 5 5 5 5 6 6 5 5 3 4 3 3 2 1 1 1 1 1 2 2 3
10 9 8 8 9 9 10 10 10 9 9 10 8 8 7 6 5 6 6 7 7 6 6 6 5 7 11 8 5 4 5 3 2 2 1 1 1 1 1 1 2 3 5
9 10 9 9 9 8 9 10 9 9 10 10 9 7 7 5 12 13 9 7 6 7 6 5 4 9 9 10 9 8 6 2 1 2 1 2 2 3 2 2 2 2 3
9 9 9 10 10 10 10 9 8 8 8 8 8 8 7 5 15 16 14 6 6 7 6 5 5 5 7 6 8 8 7 7 5 3 3 3 4 2 1 3 3 2 3
11 11 10 9 8 8 7 7 7 7 7 7 8 7 7 6 13 15 14 7 6 7 6 5 6 5 5 4 4 4 4 5 5 5 6 3 3 4 4 3 3 4 5
7 8 7 8 8 8 8 8 7 7 7 6 7 8 7 5 11 12 10 6 7 7 7 7 6 6 5 5 5 2 5 5 7 10 7 5 4 4 3 2 3 2 3
9 8 8 8 8 8 7 7 5 6 6 6 7 8 12 5 9 10 7 5 6 4 6 6 9 6 5 3 2 3 4 4 4 4 1 2 3 4 1 3 1 2 2
9 8 8 8 8 8 7 6 6 7 7 7 7 7 7 7 6 9 9 4 4 4 4 4 3 5 4 5 6 4 4 5 5 3 4 2 3 2 3 1 2 2 2
9 9 8 8 7 7 8 5 7 7 7 6 6 5 5 6 8 8 11 11 9 4 5 5 4 6 6 6 6 4 3 4 2 2 1 2 2 2 3 3 4 3 3
10 9 8 8 7 7 7 7 6 6 5 5 5 4 4 4 4 9 8 7 8 5 5 8 7 5 3 4 2 3 3 2 3 1 1 1 1 2 3 3 3 5 5
10 9 8 9 7 7 5 5 5 5 5 5 5 5 4 4 4 4 4 3 5 5 7 5 4 3 2 2 2 2 2 2 1 1 1 1 2 2 3 2 1 2 2
11 9 8 7 7 6 5 5 5 5 6 5 5 5 6 5 5 9 7 4 4 5 5 3 2 2 1 1 1 2 1 1 2 1 2 2 2 2 3 1 1 2 2
12 9 8 8 6 5 6 5 10 9 13 11 11 7 4 9 13 14 12 10 12 9 3 2 2 1 1 1 2 3 3 3 2 2 2 2 3 2 3 2 2 2 3
12 11 9 9 7 7 7 8 7 4 9 11 11 12 12 9 14 14 12 10 9 5 2 1 2 0 0 2 3 2 2 3 3 3 3 3 3 3 4 3 4 2 3
11 16 10 8 8 7 6 7 6 6 5 3 6 7 11 12 12 12 12 10 4 4 2 2 1 2 2 2 1 1 1 2 2 3 3 1 1 1 2 3 3 3 4
10 9 9 7 7 7 6 6 6 6 6 5 4 8 11 14 13 12 12 3 3 3 4 3 3 3 2 2 2 2 2 2 2 1 2 2 3 2 2 3 4 8 8
9 13 11 9 7 7 6 7 7 8 7 7 7 5 6 8 6 5 3 3 3 3 4 3 3 3 2 2 2 2 2 2 2 2 2 2 3 3 3 3 3 2 3
7 6 13 9 8 9 9 9 7 8 7 7 7 8 16 8 7 6 5 5 4 3 3 3 3 2 2 2 1 2 2 1 1 2 2 3 3 3 3 3 3 4 4
7 7 8 9 7 8 8 7 7 7 7 8 7 10 20 6 6 6 6 4 4 4 4 4 3 3 2 1 0 0 1 0 2 3 3 3 3 3 3 4 4 4 4
8 9 9 6 7 11 8 7 8 9 9 9 9 10 10 7 6 5 4 5 4 4 4 4 3 3 0 0 1 1 1 2 2 1 2 3 3 4 4 4 4 5 5
8 9 10 7 7 8 8 8 8 10 9 8 8 8 9 8 7 5 5 5 5 4 4 4 3 4 2 2 2 2 2 1 1 1 3 3 4 6 5 5 5 6 6
8 9 9 8 9 8 8 7 8 7 7 8 8 8 7 7 6 5 5 5 5 5 4 4 3 4 5 5 4 3 2 0 2 5 4 5 6 8 7 6 5 5 7
8 9 8 7 7 8 8 7 6 7 8 8 8 8 8 7 6 6 5 5 5 4 6 4 4 5 5 4 2 1 1 4 6 9 5 4 5 6 5 6 8 6 6
Wind_Direction
71 82 82 85 79 82 84 84 87 86 90 95 108 115 118 106 83 80 67 67 76 72 66 81 81 90 87 75 76 88 89 116 207 175 182 229 215 238 144 21 311 290 338
87 88 86 87 91 92 92 95 93 92 92 97 100 104 107 107 105 106 103 116 120 120 118 111 114 111 103 103 78 92 131 160 145 147 189 235 200 112 18 9 337 332 346
89 86 86 92 98 98 105 106 105 102 95 92 99 107 113 114 111 104 103 98 102 108 117 128 149 135 112 121 122 119 114 115 130 140 160 172 213 105 42 346 289 289 281
104 98 89 93 95 100 101 100 97 97 98 90 89 92 95 97 99 120 125 119 101 103 115 121 131 137 134 129 115 117 109 101 94 102 95 120 112 133 166 230 338 330 296
109 112 104 104 98 96 87 90 95 94 100 100 90 77 73 78 91 93 96 96 100 97 88 92 104 126 131 131 128 124 123 121 129 125 118 92 246 283 202 348 1 312 301
111 112 114 110 106 103 99 97 99 103 105 102 98 96 93 95 114 116 107 106 102 104 104 102 109 109 121 127 126 124 100 112 134 128 128 171 278 63 55 33 351 341 315
123 125 125 127 126 120 117 115 114 104 95 95 91 84 79 92 116 113 109 97 97 92 95 96 95 102 96 100 117 106 90 77 77 91 61 49 63 45 92 5 315 327 285
148 151 149 127 117 113 108 106 104 101 102 101 95 86 80 91 108 107 96 86 86 92 98 99 115 101 87 98 147 153 151 88 70 70 88 62 79 31 34 344 294 269 286
151 136 128 124 123 123 129 130 128 115 113 113 119 113 101 83 102 104 98 91 80 74 72 52 44 93 81 37 22 21 116 113 97 90 75 51 10 329 304 13 313 0 312
142 138 135 137 130 126 121 114 105 103 105 102 97 103 112 95 98 73 103 108 106 104 94 80 63 76 48 18 21 303 115 167 138 112 99 348 299 251 271 188 303 2 11
130 127 122 115 120 120 108 105 104 102 98 93 102 106 108 110 95 76 51 103 124 126 127 113 91 68 52 62 33 41 51 96 99 75 35 316 291 251 215 247 4 17 326
128 125 126 133 130 122 118 113 113 116 115 117 118 112 126 125 111 91 74 83 55 110 109 114 111 97 75 36 49 53 114 106 85 49 316 283 281 3 13 11 326 308 286
132 134 136 128 127 129 131 131 123 126 130 141 134 130 132 131 132 125 105 99 70 70 103 120 105 92 38 357 342 279 113 56 91 25 276 242 201 258 288 293 278 278 272
142 143 141 137 141 142 139 135 136 149 151 152 149 150 150 138 142 145 136 114 128 112 119 114 117 83 81 344 328 305 111 93 54 255 300 278 254 278 277 265 273 317 310
152 153 148 142 141 144 143 154 154 175 163 160 169 156 149 164 175 164 160 177 178 191 135 122 158 185 188 129 107 142 155 215 245 244 215 256 276 280 276 255 262 295 305
158 158 159 151 157 152 131 90 63 130 128 150 160 145 143 168 173 166 135 121 127 137 102 169 210 199 267 339 239 226 224 243 241 234 250 260 268 284 295 304 289 266 270
163 162 160 153 162 160 153 151 143 83 98 119 120 128 133 140 152 158 158 146 151 131 117 149 192 221 177 267 222 222 226 238 238 234 240 251 261 282 330 319 290 309 303
166 165 162 160 165 161 163 154 146 153 145 129 151 139 145 155 160 163 163 155 164 177 166 188 198 160 171 207 254 258 354 8 327 284 275 297 5 316 296 296 309 295 300
165 165 158 158 158 158 147 144 144 145 149 152 153 165 169 163 165 170 171 148 167 183 205 213 177 159 197 194 168 199 231 241 261 286 296 278 276 275 293 282 292 317 320
175 163 155 164 154 153 150 155 153 159 159 158 162 164 154 156 166 158 162 172 243 199 182 157 164 177 191 183 197 207 233 272 303 308 303 304 297 295 296 308 309 308 295
168 162 157 160 162 163 162 163 159 157 159 160 163 173 173 167 162 169 179 203 199 165 158 152 155 169 155 179 206 233 233 247 332 315 306 299 299 303 306 284 283 291 291
159 155 168 163 156 162 161 157 152 154 157 160 163 173 176 164 162 180 194 190 174 160 151 141 135 140 107 108 336 76 69 322 298 307 303 317 320 309 315 305 298 299 301
158 152 164 151 156 159 160 154 158 166 166 166 159 162 168 165 174 180 185 163 152 145 147 134 125 120 281 298 69 108 236 287 314 337 3 340 327 325 313 302 307 308 307
158 154 158 152 149 158 158 164 170 173 164 156 154 161 165 164 174 186 163 148 144 145 138 134 140 159 202 243 218 231 241 312 79 315 343 301 280 286 285 291 290 297 302
148 148 156 151 156 159 162 162 164 160 150 147 154 156 166 168 169 170 158 149 139 137 150 149 155 199 212 225 216 216 155 12 329 311 285 283 288 291 287 281 285 288 288
146 145 148 140 147 155 160 155 148 140 145 147 154 167 168 175 168 152 139 133 132 145 157 157 162 198 216 226 254 267 131 300 301 286 288 275 275 279 290 289 287 291 292